FW7672 Weather Reports


time (UTC)temp
C
wind
direction
speed
KPH
gust
KPH
rain 1hr
cm
rain 24hr
cm
rain mn
cm
humidity
%
barometer
mb
20260507010837 15 300 0.0 0.0 0.00 0.00 1.27 94 1008.6
20260507010334 15 300 1.6 0.0 0.00 0.00 1.24 94 1008.6
20260507005830 16 291 1.6 0.0 0.00 0.00 1.24 94 1008.7
20260507005346 16 229 1.6 0.0 0.00 0.00 1.24 95 1008.7
20260507004843 16 330 0.0 0.0 0.00 0.00 1.24 97 1008.5
20260507004323 16 344 0.0 0.0 0.00 0.00 1.24 97 1008.1
20260507003821 16 344 0.0 0.0 0.00 0.00 1.24 97 1007.9
20260507003332 16 344 0.0 0.0 0.00 0.00 1.24 97 1007.7
20260507002839 16 344 0.0 0.0 0.00 0.00 1.24 97 1007.6
20260507002337 16 344 0.0 0.0 0.00 0.00 1.24 97 1007.5
20260507001835 16 344 0.0 0.0 0.00 0.00 1.24 97 1007.4
20260507001332 16 344 0.0 0.0 0.00 0.00 1.24 97 1007.2
20260507000828 16 344 0.0 0.0 0.00 0.00 1.24 97 1007.1
20260507000359 16 344 0.0 0.0 0.00 0.00 1.24 97 1007.2
20260506235838 16 344 0.0 0.0 0.00 0.00 1.24 96 1007.2
20260506235335 16 344 0.0 0.0 0.00 0.00 1.24 96 1007.2
20260506234843 17 344 0.0 0.0 0.00 0.00 1.24 97 1007.3
20260506234344 17 344 0.0 0.0 0.00 0.00 1.24 97 1007.0
20260506233822 17 344 0.0 0.0 0.00 0.00 1.24 96 1007.0
20260506233345 17 355 0.0 0.0 0.00 0.00 1.24 96 1007.1
20260506232842 17 355 0.0 0.0 0.00 0.00 1.24 96 1007.0
20260506232343 17 9 0.0 0.0 0.00 0.00 1.22 96 1007.0
20260506231848 17 5 0.0 0.0 0.00 0.00 1.19 95 1007.2
20260506231322 17 347 0.0 0.0 0.00 0.00 0.97 96 1007.1
20260506230839 17 318 0.0 0.0 0.00 0.00 0.86 96 1006.8
20260506230336 17 318 0.0 0.0 0.00 0.00 0.81 96 1006.6
20260506225844 17 318 0.0 0.0 0.00 0.00 0.81 96 1006.6
20260506225341 17 318 0.0 0.0 0.00 0.00 0.81 96 1006.5
20260506224821 18 318 0.0 0.0 0.00 0.00 0.81 96 1006.4
20260506224338 18 318 0.0 0.0 0.00 0.00 0.81 96 1006.4
20260506223831 18 318 0.0 0.0 0.00 0.00 0.81 96 1006.3
20260506223329 18 318 0.0 0.0 0.00 0.00 0.81 96 1006.5
20260506222841 18 318 0.0 0.0 0.00 0.00 0.81 96 1006.5
20260506222338 18 317 0.0 0.0 0.00 0.00 0.81 96 1006.5
20260506221839 18 317 0.0 0.0 0.00 0.00 0.81 96 1006.4
20260506221356 18 317 0.0 0.0 0.00 0.00 0.81 96 1006.4
20260506220847 18 317 0.0 0.0 0.00 0.00 0.81 96 1006.3
20260506220325 18 317 0.0 0.0 0.00 0.00 0.81 96 1006.2
20260506215821 18 317 0.0 0.0 0.00 0.00 0.81 96 1006.2
20260506215338 18 319 0.0 0.0 0.00 0.00 0.81 96 1006.2
20260506214836 18 319 0.0 0.0 0.00 0.00 0.81 96 1006.3
20260506214344 18 294 0.0 0.0 0.00 0.00 0.81 96 1006.4
20260506213837 18 336 0.0 0.0 0.00 0.00 0.81 96 1006.2
20260506213334 18 13 0.0 0.0 0.00 0.00 0.81 96 1006.2
20260506212831 18 13 0.0 0.0 0.00 0.00 0.81 96 1006.1
20260506212328 18 306 0.0 0.0 0.00 0.00 0.81 97 1006.1
20260506211834 17 296 0.0 0.0 0.00 0.00 0.81 97 1005.9
20260506211332 17 297 0.0 0.0 0.00 0.00 0.81 98 1005.9
20260506210830 17 296 0.0 0.0 0.00 0.00 0.81 98 1005.9
20260506210356 17 296 0.0 0.0 0.00 0.00 0.81 98 1005.9
20260506205832 17 296 0.0 0.0 0.00 0.00 0.81 98 1005.9
20260506205332 17 297 0.0 0.0 0.00 0.00 0.81 98 1005.9
20260506204858 17 297 0.0 0.0 0.00 0.00 0.81 98 1005.9
20260506204333 17 297 0.0 0.0 0.00 0.00 0.81 98 1005.9
20260506203830 17 297 0.0 0.0 0.00 0.00 0.81 97 1006.0
20260506203358 17 297 0.0 0.0 0.00 0.00 0.81 98 1006.0
20260506202834 17 297 0.0 0.0 0.00 0.00 0.81 98 1005.9
20260506202331 17 297 0.0 0.0 0.00 0.00 0.81 98 1005.9
20260506201836 17 297 0.0 0.0 0.00 0.00 0.81 98 1006.0
20260506201333 17 297 0.0 0.0 0.00 0.00 0.81 98 1006.0
20260506200830 17 297 0.0 0.0 0.00 0.00 0.81 97 1006.0
20260506200328 17 297 0.0 0.0 0.00 0.00 0.81 97 1006.1
20260506195855 16 297 0.0 0.0 0.00 0.00 0.81 97 1006.1
20260506195332 16 297 0.0 0.0 0.00 0.00 0.81 97 1005.9
20260506194834 16 297 0.0 0.0 0.00 0.00 0.81 97 1006.0
20260506194332 16 311 0.0 0.0 0.00 0.00 0.81 97 1006.0
20260506193830 16 338 0.0 0.0 0.00 0.00 0.81 97 1006.0
20260506193327 16 338 0.0 0.0 0.00 0.00 0.81 97 1006.0
20260506192833 16 344 0.0 0.0 0.00 0.00 0.81 97 1006.0
20260506192348 16 41 0.0 0.0 0.00 0.00 0.81 97 1006.0
20260506191833 16 41 0.0 0.0 0.00 0.00 0.81 97 1006.1
20260506191352 16 41 0.0 0.0 0.00 0.00 0.81 97 1006.1
20260506190837 16 323 0.0 0.0 0.00 0.00 0.81 97 1006.1
20260506190334 16 315 0.0 0.0 0.00 0.00 0.81 98 1006.2
20260506185827 16 355 0.0 0.0 0.00 0.00 0.81 98 1006.3
20260506185331 16 355 0.0 0.0 0.00 0.00 0.81 98 1006.4
20260506184823 16 18 0.0 0.0 0.00 0.00 0.81 97 1006.4
20260506184327 16 307 0.0 0.0 0.00 0.00 0.81 97 1006.5
20260506183827 16 355 0.0 0.0 0.00 0.00 0.81 97 1006.6
20260506183333 16 355 0.0 0.0 0.00 0.00 0.81 97 1006.6
20260506182833 16 355 0.0 0.0 0.00 0.00 0.81 97 1006.7
20260506182359 16 303 0.0 0.0 0.00 0.00 0.81 97 1006.7
20260506181834 16 303 0.0 0.0 0.00 0.00 0.79 97 1006.8
20260506181331 16 355 0.0 0.0 0.00 0.00 0.79 97 1006.9
20260506180826 16 355 0.0 0.0 0.00 0.00 0.79 97 1006.9
20260506180331 16 355 0.0 0.0 0.00 0.00 0.79 97 1006.9
20260506175826 16 286 0.0 0.0 0.00 0.00 0.79 97 1006.9
20260506175350 16 328 0.0 0.0 0.00 0.00 0.76 97 1006.9
20260506174846 16 355 0.0 0.0 0.00 0.00 0.76 97 1007.0
20260506174331 16 322 0.0 0.0 0.00 0.00 0.76 97 1007.0
20260506173826 16 322 0.0 0.0 0.00 0.00 0.76 97 1007.0
20260506173351 16 322 0.0 0.0 0.00 0.00 0.74 97 1007.1
20260506172826 16 322 0.0 0.0 0.00 0.00 0.74 97 1006.9
20260506172324 16 322 0.0 0.0 0.00 0.00 0.74 97 1006.9
20260506171826 16 286 0.0 0.0 0.00 0.00 0.74 97 1006.9
20260506171325 16 288 0.0 0.0 0.00 0.00 0.71 97 1006.9
20260506170850 16 325 0.0 0.0 0.00 0.00 0.71 96 1006.9
20260506170326 16 18 0.0 0.0 0.00 0.00 0.69 97 1007.0
20260506165837 16 321 0.0 0.0 0.00 0.00 0.69 96 1007.1
20260506165347 16 321 0.0 0.0 0.00 0.00 0.64 96 1007.1
20260506164822 16 313 0.0 0.0 0.00 0.00 0.58 96 1007.2
20260506164336 16 5 0.0 0.0 0.00 0.00 0.56 96 1007.2
20260506163842 16 5 0.0 0.0 0.00 0.00 0.56 96 1007.1
20260506163340 16 24 0.0 0.0 0.00 0.00 0.53 96 1007.2
20260506162838 16 24 0.0 0.0 0.00 0.00 0.53 96 1007.3
20260506162335 16 24 0.0 0.0 0.00 0.00 0.53 97 1007.3
20260506161903 16 24 0.0 0.0 0.00 0.00 0.53 97 1007.2
20260506161321 16 360 0.0 0.0 0.00 0.00 0.53 96 1007.1
20260506160822 16 339 0.0 0.0 0.00 0.00 0.51 96 1007.1
20260506160334 16 339 0.0 0.0 0.00 0.00 0.51 96 1007.0
20260506155902 16 42 0.0 0.0 0.00 0.00 0.51 96 1006.9
20260506155337 16 42 0.0 0.0 0.00 0.00 0.48 96 1007.1
20260506154835 16 111 0.0 0.0 0.00 0.00 0.48 96 1007.0
20260506154331 16 123 0.0 0.0 0.00 0.00 0.46 96 1007.2
20260506153837 16 121 0.0 0.0 0.00 0.00 0.43 96 1007.3
20260506153334 16 130 0.0 0.0 0.00 0.00 0.43 96 1007.6
20260506152831 16 130 0.0 0.0 0.00 0.00 0.41 96 1007.7
20260506152328 16 130 0.0 0.0 0.00 0.00 0.38 95 1008.0
20260506151834 16 130 0.0 0.0 0.00 0.00 0.36 95 1008.0
20260506151331 16 138 0.0 0.0 0.00 0.00 0.33 95 1008.2
20260506150845 16 65 0.0 0.0 0.00 0.00 0.28 95 1008.2
20260506150350 16 65 0.0 0.0 0.00 0.00 0.23 95 1008.2
20260506145826 16 65 0.0 0.0 0.00 0.00 0.20 95 1008.2
20260506145352 16 116 0.0 0.0 0.00 0.00 0.20 95 1007.9
20260506144830 16 237 0.0 0.0 0.00 0.00 0.18 95 1007.9
20260506144357 16 237 0.0 0.0 0.00 0.00 0.18 95 1007.9
20260506143832 16 237 0.0 0.0 0.00 0.00 0.15 95 1007.9
20260506143346 16 237 0.0 0.0 0.00 0.00 0.13 95 1007.8
20260506142846 16 237 0.0 0.0 0.00 0.00 0.13 95 1007.8
20260506142321 16 237 0.0 0.0 0.00 0.00 0.10 94 1007.6
20260506141832 16 237 0.0 0.0 0.00 0.00 0.10 94 1007.8
20260506141340 16 237 0.0 0.0 0.00 0.00 0.10 94 1007.8
20260506140841 16 237 0.0 0.0 0.00 0.00 0.08 94 1008.0
20260506140338 16 237 0.0 0.0 0.00 0.00 0.08 94 1008.0
20260506135835 16 346 0.0 0.0 0.00 0.00 0.05 94 1007.9
20260506135332 16 346 0.0 0.0 0.00 0.00 0.05 94 1007.9
20260506134844 16 346 0.0 0.0 0.00 0.00 0.05 93 1007.9
20260506134340 16 346 0.0 0.0 0.00 0.00 0.05 94 1007.8
20260506133837 16 346 0.0 0.0 0.00 0.00 0.05 94 1007.8
20260506133355 16 346 0.0 0.0 0.00 0.00 0.05 94 1007.9
20260506132846 16 346 0.0 0.0 0.00 0.00 0.05 94 1008.0
20260506132339 16 346 0.0 0.0 0.00 0.00 0.05 94 1008.1
20260506131836 16 346 0.0 0.0 0.00 0.00 0.03 93 1008.2
20260506131337 16 346 0.0 0.0 0.00 0.00 0.03 92 1008.2
20260506130903 16 346 0.0 0.0 0.00 0.00 0.03 92 1008.3
20260506130338 16 346 0.0 0.0 0.00 0.00 0.03 92 1008.3
20260506125836 16 346 0.0 0.0 0.00 0.00 0.03 92 1008.3
20260506125332 17 346 0.0 0.0 0.00 0.00 0.00 91 1008.3
20260506124839 17 346 0.0 0.0 0.00 0.00 0.00 91 1008.2
20260506124335 17 346 0.0 0.0 0.00 0.00 0.00 90 1008.2
20260506123832 17 346 0.0 0.0 0.00 0.00 0.00 89 1008.3
20260506123332 17 345 0.0 0.0 0.00 0.00 0.00 89 1008.4
20260506122856 17 346 0.0 0.0 0.00 0.00 0.00 88 1008.4
20260506122333 17 336 0.0 0.0 0.00 0.00 0.00 88 1008.1
20260506121901 17 336 0.0 0.0 0.00 0.00 0.00 86 1008.1
20260506121336 17 317 0.0 0.0 0.00 0.00 0.00 86 1008.2
20260506120853 17 9 0.0 0.0 0.00 0.00 0.00 85 1008.0
20260506120338 18 9 0.0 0.0 0.00 0.00 0.00 85 1008.0
20260506115855 18 9 0.0 0.0 0.00 0.00 0.00 83 1007.9
20260506115331 18 5 0.0 0.0 0.00 0.00 0.00 83 1008.0
20260506114836 18 27 0.0 0.0 0.00 0.00 0.00 81 1007.9
20260506114333 18 24 0.0 0.0 0.00 0.00 0.00 81 1007.9
20260506113829 18 346 0.0 0.0 0.00 0.00 0.00 81 1008.0
20260506113324 18 345 0.0 0.0 0.00 0.00 0.00 80 1007.8
20260506112829 18 50 0.0 0.0 0.00 0.00 0.00 80 1007.8
20260506112347 18 51 0.0 0.0 0.00 0.00 0.00 79 1007.8
20260506111832 18 304 0.0 0.0 0.00 0.00 0.00 79 1007.8
20260506111326 18 31 0.0 0.0 0.00 0.00 0.00 78 1007.9
20260506110852 18 84 0.0 0.0 0.00 0.00 0.00 78 1008.0
20260506110326 18 52 0.0 0.0 0.00 0.00 0.00 78 1007.8
20260506105820 18 24 0.0 0.0 0.00 0.00 0.00 78 1007.8
20260506105326 18 24 0.0 0.0 0.00 0.00 0.00 78 1007.6
20260506104858 18 5 0.0 0.0 0.00 0.00 0.00 79 1007.5
20260506104342 18 360 0.0 0.0 0.00 0.00 0.00 79 1007.4
20260506103850 18 251 0.0 0.0 0.00 0.00 0.00 80 1007.3
20260506103344 17 250 0.0 0.0 0.00 0.00 0.00 80 1007.3
20260506102853 17 61 0.0 0.0 0.00 0.00 0.00 80 1007.3
20260506102327 17 61 0.0 0.0 0.00 0.00 0.00 81 1007.2
20260506101835 17 61 0.0 0.0 0.00 0.00 0.00 80 1007.2
20260506101331 17 61 0.0 0.0 0.00 0.00 0.00 80 1007.2
20260506100826 17 61 0.0 0.0 0.00 0.00 0.00 79 1007.1
20260506100348 18 61 0.0 0.0 0.00 0.00 0.00 79 1007.2
20260506095822 18 61 0.0 0.0 0.00 0.00 0.00 79 1007.2
20260506095321 17 23 0.0 0.0 0.00 0.00 0.00 79 1007.2
20260506094848 17 57 0.0 0.0 0.00 0.00 0.00 79 1007.2
20260506094322 17 56 0.0 0.0 0.00 0.00 0.00 79 1007.3
20260506093824 17 56 0.0 0.0 0.00 0.00 0.00 78 1007.4
20260506093353 17 300 0.0 0.0 0.00 0.00 0.00 78 1007.4
20260506092826 18 300 0.0 0.0 0.00 0.00 0.00 77 1007.4
20260506092352 18 29 0.0 0.0 0.00 0.00 0.00 77 1007.3
20260506091826 18 95 0.0 0.0 0.00 0.00 0.00 77 1007.4
20260506091332 18 150 0.0 0.0 0.00 0.00 0.00 77 1007.4
20260506090821 18 71 0.0 0.0 0.00 0.00 0.00 76 1007.4
20260506090347 18 69 0.0 0.0 0.00 0.00 0.00 76 1007.4
20260506085845 18 70 0.0 0.0 0.00 0.00 0.00 76 1007.3
20260506085350 18 70 0.0 0.0 0.00 0.00 0.00 76 1007.4
20260506084828 18 70 0.0 0.0 0.00 0.00 0.00 76 1007.4
20260506084327 18 70 0.0 0.0 0.00 0.00 0.00 76 1007.4
20260506083853 18 69 0.0 0.0 0.00 0.00 0.00 76 1007.4
20260506083348 18 69 0.0 0.0 0.00 0.00 0.00 75 1007.4
20260506082853 18 69 0.0 0.0 0.00 0.00 0.00 75 1007.4
20260506082329 18 69 0.0 0.0 0.00 0.00 0.00 75 1007.5
20260506081859 18 76 0.0 0.0 0.00 0.00 0.00 75 1007.4
20260506081338 18 136 0.0 0.0 0.00 0.00 0.00 75 1007.4
20260506080835 18 136 0.0 0.0 0.00 0.00 0.00 75 1007.4
20260506080332 18 136 0.0 0.0 0.00 0.00 0.00 74 1007.4
20260506073341 17 62 0.0 0.0 0.00 0.00 0.00 75 1007.5
20260506072838 17 62 0.0 0.0 0.00 0.00 0.00 74 1007.6
20260506072331 17 63 0.0 0.0 0.00 0.00 0.00 74 1007.6
20260506071828 17 64 0.0 0.0 0.00 0.00 0.00 74 1007.7
20260506071325 18 64 0.0 0.0 0.00 0.00 0.00 73 1007.7
20260506070831 18 64 0.0 0.0 0.00 0.00 0.00 73 1007.7
20260506070329 18 64 0.0 0.0 0.00 0.00 0.00 73 1007.7
20260506062331 18 302 0.0 0.0 0.00 0.00 0.00 69 1008.0
20260506061828 18 78 0.0 0.0 0.00 0.00 0.00 69 1008.1
20260506061325 19 78 0.0 0.0 0.00 0.00 0.00 68 1008.1
20260506060823 19 78 0.0 0.0 0.00 0.00 0.00 68 1008.2
20260506060349 19 78 0.0 0.0 0.00 0.00 0.00 67 1008.2
20260506051322 20 128 0.0 0.0 0.00 0.00 0.00 65 1008.5
20260506050833 20 74 0.0 0.0 0.00 0.00 0.00 64 1008.6
20260506050327 20 69 0.0 0.0 0.00 0.00 0.00 64 1008.5
20260506044849 20 310 0.0 0.0 0.00 0.00 0.00 63 1008.6
20260506044346 20 99 0.0 0.0 0.00 0.00 0.00 62 1008.5
20260506043824 20 108 0.0 0.0 0.00 0.00 0.00 62 1008.6
20260506043321 19 226 0.0 0.0 0.00 0.00 0.00 61 1008.6
20260506042835 19 11 0.0 0.0 0.00 0.00 0.00 63 1008.6
20260506042333 18 325 0.0 0.0 0.00 0.00 0.00 65 1008.5
20260506041842 18 330 0.0 0.0 0.00 0.00 0.00 65 1008.6
20260506041338 18 340 0.0 0.0 0.00 0.00 0.00 65 1008.6
20260506040835 18 27 0.0 0.0 0.00 0.00 0.00 65 1008.7
20260506040335 18 217 0.0 0.0 0.00 0.00 0.00 66 1008.7
20260506035843 18 74 0.0 0.0 0.00 0.00 0.00 66 1008.6
20260506035340 18 36 0.0 0.0 0.00 0.00 0.00 66 1008.5
20260506034838 18 35 0.0 0.0 0.00 0.00 0.00 67 1008.6
20260506034336 18 30 0.0 0.0 0.00 0.00 0.00 65 1008.5
20260506033833 18 150 0.0 0.0 0.00 0.00 0.00 65 1008.5
20260506033355 18 149 0.0 0.0 0.00 0.00 0.00 65 1008.6
20260506032851 18 150 0.0 0.0 0.00 0.00 0.00 64 1008.5
20260506032338 18 150 0.0 0.0 0.00 0.00 0.00 67 1008.6
20260506031835 18 150 0.0 0.0 0.00 0.00 0.00 65 1008.5
20260506031333 18 150 0.0 0.0 0.00 0.00 0.00 65 1008.5
20260506030833 18 150 0.0 0.0 0.00 0.00 0.00 65 1008.6
20260506030359 18 150 0.0 0.0 0.00 0.00 0.00 66 1008.6
20260506025838 18 150 0.0 0.0 0.00 0.00 0.00 66 1008.5
20260506025335 19 150 0.0 0.0 0.00 0.00 0.00 65 1008.6
20260506024843 19 150 0.0 0.0 0.00 0.00 0.00 63 1008.6
20260506024344 19 150 0.0 0.0 0.00 0.00 0.00 64 1008.5
20260506023820 19 150 0.0 0.0 0.00 0.00 0.00 63 1008.6
20260506023337 20 150 0.0 0.0 0.00 0.00 0.00 62 1008.6
20260506022836 20 150 0.0 0.0 0.00 0.00 0.00 61 1008.6
20260506022342 20 150 0.0 0.0 0.00 0.00 0.00 60 1008.6
20260506021839 20 150 0.0 0.0 0.00 0.00 0.00 60 1008.6
20260506021336 20 150 0.0 0.0 0.00 0.00 0.00 60 1008.6
20260506020832 20 150 0.0 0.0 0.00 0.00 0.00 62 1008.7
20260506020339 20 150 0.0 0.0 0.00 0.00 0.00 61 1008.6
20260506015835 20 150 0.0 0.0 0.00 0.00 0.00 60 1008.6
20260506015332 20 150 0.0 0.0 0.00 0.00 0.00 59 1008.6
20260506014905 20 150 0.0 0.0 0.00 0.00 0.00 58 1008.5
20260506014341 20 98 0.0 0.0 0.00 0.00 0.00 58 1008.5
20260506013821 20 98 0.0 0.0 0.00 0.00 0.00 57 1008.5
20260506013334 21 98 0.0 0.0 0.00 0.00 0.00 57 1008.4
20260506012834 21 98 0.0 0.0 0.00 0.00 0.00 55 1008.3
20260506012331 21 98 0.0 0.0 0.00 0.00 0.00 59 1008.2
20260506011837 21 100 0.0 0.0 0.00 0.00 0.00 55 1008.2
20260506011334 21 22 0.0 0.0 0.00 0.00 0.00 56 1008.0